Total_Precipitation_Accumulation
1.84 2.20 2.54 2.97 3.40 3.91 4.60 5.16 5.51 5.45 5.20 4.82 4.40 4.09 3.61 3.26 2.94 2.59 2.38 2.15 1.90 1.79 1.97 1.78 1.86 1.87 1.82 1.67 1.62 1.70 1.71 1.52 1.78 1.99 1.59 1.21 1.04 0.93 0.80 0.78 0.83 0.76 0.82
1.78 2.09 2.59 2.89 3.21 3.67 4.15 4.53 4.47 4.14 4.00 3.92 3.77 3.48 3.45 3.31 3.05 2.80 2.56 2.17 1.95 1.78 1.61 1.65 1.56 1.57 1.64 1.48 1.38 1.51 1.51 1.31 1.54 1.66 1.62 1.22 1.04 0.88 0.63 0.66 0.67 0.75 0.91
1.39 1.71 2.25 2.54 2.70 3.07 3.35 3.40 3.26 3.03 3.03 3.06 2.96 2.99 3.17 3.20 3.08 2.87 2.59 2.31 2.14 1.99 1.83 1.65 1.48 1.44 1.36 1.34 1.31 1.39 1.41 1.32 1.27 1.31 1.47 1.23 0.97 0.81 0.59 0.54 0.59 0.78 0.95
1.09 1.37 1.71 1.88 2.09 2.27 2.42 2.45 2.46 2.40 2.39 2.43 2.32 2.18 2.23 2.37 2.52 2.73 2.73 2.69 2.49 2.23 1.97 1.78 1.54 1.32 1.21 1.29 1.10 1.15 1.33 1.39 1.19 1.12 1.10 1.11 1.20 1.14 0.83 0.57 0.50 0.71 0.81
1.08 1.22 1.29 1.40 1.52 1.55 1.71 1.77 2.00 2.26 2.33 2.30 2.37 2.23 1.96 1.88 1.88 1.98 2.09 2.11 2.11 1.99 1.75 1.62 1.51 1.26 1.10 1.10 1.09 1.21 1.22 1.23 1.12 1.10 1.07 1.13 1.26 1.21 1.11 0.85 0.72 0.73 0.66
0.81 0.95 1.08 1.14 1.17 1.18 1.35 1.55 1.83 2.17 2.34 2.36 2.30 2.22 2.06 1.97 1.82 1.72 1.67 1.59 1.64 1.62 1.52 1.43 1.37 1.21 1.11 1.11 1.07 1.13 1.17 1.22 1.23 1.22 1.22 1.24 1.24 1.27 1.38 1.19 1.01 0.92 0.76
0.58 0.60 0.72 0.82 0.81 0.82 0.92 1.18 1.41 1.62 1.81 1.95 1.94 1.83 1.87 1.93 1.76 1.55 1.41 1.31 1.26 1.24 1.26 1.32 1.31 1.22 1.18 1.21 1.27 1.24 1.17 1.20 1.26 1.25 1.30 1.34 1.28 1.35 1.48 1.44 1.22 1.10 1.05
0.39 0.37 0.42 0.53 0.62 0.62 0.65 0.78 1.05 1.22 1.40 1.53 1.64 1.72 1.84 1.91 1.80 1.83 1.60 1.39 1.22 1.15 1.18 1.31 1.32 1.22 1.17 1.13 1.27 1.24 1.24 1.29 1.29 1.23 1.39 1.44 1.31 1.46 1.62 1.67 1.64 1.48 1.44
0.28 0.28 0.33 0.37 0.40 0.45 0.52 0.58 0.72 0.91 1.12 1.31 1.47 1.53 1.50 1.49 1.53 1.60 1.58 1.42 1.37 1.24 1.31 1.35 1.40 1.38 1.35 1.34 1.38 1.31 1.36 1.50 1.50 1.44 1.48 1.50 1.45 1.51 1.62 1.76 1.83 1.82 1.76
0.28 0.27 0.27 0.29 0.29 0.32 0.44 0.55 0.61 0.75 1.08 1.38 1.51 1.38 1.32 1.21 1.29 1.32 1.35 1.40 1.39 1.36 1.37 1.35 1.37 1.42 1.42 1.39 1.45 1.44 1.50 1.65 1.66 1.71 1.78 1.71 1.60 1.66 1.70 1.75 1.89 2.03 2.04
0.30 0.29 0.24 0.23 0.28 0.28 0.38 0.56 0.67 0.82 1.10 1.40 1.56 1.50 1.33 1.27 1.31 1.23 1.18 1.28 1.33 1.34 1.35 1.29 1.27 1.24 1.28 1.43 1.56 1.53 1.58 1.63 1.68 1.70 1.66 1.61 1.62 1.65 1.56 1.61 1.72 1.89 2.04
0.24 0.23 0.17 0.18 0.21 0.24 0.35 0.66 0.96 1.31 1.47 1.70 1.92 1.87 1.52 1.32 1.24 1.08 1.02 1.11 1.26 1.33 1.33 1.27 1.23 1.20 1.30 1.48 1.57 1.65 1.81 1.90 1.83 1.73 1.63 1.51 1.53 1.58 1.56 1.64 1.64 1.70 1.93
0.25 0.26 0.19 0.19 0.20 0.21 0.26 0.42 0.57 0.90 1.21 1.52 1.77 1.70 1.42 1.20 1.12 1.07 1.05 1.14 1.26 1.31 1.30 1.30 1.35 1.44 1.55 1.68 1.75 1.81 1.96 1.95 1.82 1.75 1.62 1.49 1.51 1.51 1.60 1.70 1.67 1.63 1.67
0.32 0.28 0.25 0.24 0.23 0.24 0.24 0.34 0.43 0.52 0.70 1.08 1.33 1.33 1.19 1.11 1.06 1.09 1.10 1.08 1.11 1.18 1.25 1.42 1.63 1.76 1.83 1.87 1.92 1.92 1.87 1.82 1.68 1.56 1.46 1.46 1.55 1.60 1.61 1.55 1.53 1.55 1.63
0.30 0.24 0.26 0.34 0.37 0.40 0.37 0.38 0.43 0.46 0.61 0.97 1.17 1.13 1.07 1.04 1.00 0.97 1.03 1.08 1.15 1.21 1.39 1.55 1.68 1.69 1.72 1.78 1.88 1.86 1.79 1.70 1.56 1.43 1.24 1.19 1.39 1.51 1.53 1.41 1.46 1.50 1.53
0.33 0.29 0.26 0.35 0.41 0.44 0.45 0.44 0.45 0.48 0.59 0.84 1.04 1.05 0.99 0.93 0.88 0.91 1.02 1.19 1.28 1.39 1.53 1.58 1.56 1.51 1.27 1.31 1.43 1.49 1.50 1.49 1.41 1.29 1.21 1.17 1.21 1.19 1.17 1.15 1.17 1.23 1.32
0.35 0.28 0.29 0.38 0.52 0.50 0.52 0.55 0.51 0.50 0.63 0.83 0.99 1.07 1.04 1.05 1.01 0.99 1.15 1.35 1.45 1.53 1.58 1.57 1.52 1.44 1.40 1.30 1.17 1.14 1.19 1.27 1.27 1.27 1.30 1.10 0.99 1.08 1.08 1.13 1.08 1.00 1.02
0.43 0.41 0.38 0.43 0.53 0.52 0.55 0.59 0.58 0.60 0.72 0.89 1.05 1.11 1.08 1.14 1.22 1.23 1.32 1.52 1.70 1.73 1.70 1.68 1.60 1.56 1.52 1.40 1.20 1.08 1.04 1.20 1.26 1.25 1.27 1.25 1.19 1.17 1.24 1.26 1.19 1.06 0.99
0.53 0.57 0.59 0.55 0.58 0.60 0.62 0.63 0.67 0.73 0.84 0.91 1.05 1.15 1.23 1.35 1.39 1.43 1.58 1.77 1.90 1.84 1.80 1.82 1.80 1.77 1.74 1.54 1.24 1.11 1.12 1.30 1.34 1.34 1.33 1.32 1.28 1.27 1.14 1.12 1.15 1.14 1.10
0.56 0.58 0.64 0.67 0.70 0.71 0.74 0.80 0.86 0.98 1.13 1.21 1.28 1.46 1.66 1.84 1.92 1.96 2.02 2.04 2.10 1.99 1.94 1.88 1.84 1.79 1.79 1.71 1.31 1.14 1.17 1.38 1.44 1.50 1.47 1.34 1.22 1.17 1.04 1.03 1.16 1.12 1.07
0.52 0.58 0.61 0.68 0.71 0.74 0.89 1.05 1.12 1.23 1.36 1.48 1.55 1.76 2.09 2.26 2.22 2.21 2.17 2.12 2.14 2.13 2.10 2.02 1.98 1.94 1.88 1.82 1.43 1.26 1.31 1.47 1.57 1.56 1.51 1.45 1.30 1.10 1.02 0.96 0.99 1.01 0.99
0.50 0.55 0.59 0.62 0.72 0.84 1.06 1.32 1.41 1.39 1.47 1.65 1.85 2.07 2.32 2.29 2.18 2.33 2.27 2.25 2.31 2.29 2.19 2.14 2.07 2.06 2.02 1.87 1.58 1.35 1.40 1.55 1.67 1.73 1.68 1.58 1.35 1.10 1.00 0.91 0.87 0.81 0.75
0.51 0.56 0.61 0.70 0.79 0.96 1.28 1.55 1.62 1.66 1.69 1.82 1.98 2.09 2.20 2.38 2.50 2.54 2.46 2.39 2.36 2.32 2.17 2.08 1.98 1.92 1.98 1.98 1.56 1.30 1.35 1.44 1.50 1.66 1.68 1.42 1.18 1.03 0.88 0.83 0.81 0.72 0.67
0.52 0.59 0.66 0.80 0.98 1.14 1.40 1.54 1.59 1.62 1.65 1.67 1.70 1.82 2.01 2.15 2.23 2.45 2.53 2.46 2.33 2.27 2.22 2.11 1.98 1.91 1.95 1.94 1.61 1.30 1.27 1.32 1.31 1.40 1.47 1.35 1.17 1.03 0.91 0.85 0.81 0.76 0.78
0.53 0.63 0.72 0.82 0.95 1.12 1.29 1.33 1.44 1.52 1.62 1.61 1.58 1.61 1.65 1.78 1.87 1.99 2.12 2.13 2.15 1.98 1.88 1.76 1.70 1.71 1.76 1.73 1.47 1.29 1.29 1.41 1.46 1.42 1.44 1.46 1.33 1.19 1.08 1.04 1.07 1.08 1.04
0.52 0.62 0.74 0.84 0.94 1.08 1.26 1.32 1.41 1.49 1.55 1.54 1.49 1.50 1.52 1.61 1.69 1.74 1.70 1.55 1.50 1.34 1.21 1.17 1.13 1.14 1.20 1.30 1.15 1.03 1.12 1.28 1.33 1.27 1.30 1.41 1.40 1.32 1.23 1.17 1.17 1.16 1.10